Regional Weather Roundup
Issued by NWS

Home | Current Version | Previous Version | Text Only | Print | Product List | Glossary Off
Versions: 1 2 3 4 5 6 7 8 9 10 11 12 13 14 15 16 17 18 19 20 21 22 23 24 25 26 27 28 29 30 31 32 33 34 35 36 37 38 39 40 41 42 43 44 45 46 47 48 49 50

830
ASUS45 KBOU 251907
RWRCO

WEATHER ROUNDUP FOR COLORADO
NATIONAL WEATHER SERVICE DENVER/BOULDER CO
100 PM MDT WED MAY 25 2016

NOTE: "FAIR" INDICATES FEW OR NO CLOUDS BELOW 12000 FEET WITH NO
SIGNIFICANT WEATHER AND/OR OBSTRUCTIONS TO VISIBILITY.

COZ001>005-013-030-031-252000-
...NORTHWEST COLORADO...

CITY           SKY/WX    TMP DP  RH WIND       PRES   REMARKS
CRAIG          FAIR      64  27  24 SW13G24   30.05F
HAYDEN         FAIR      57  25  28 NW16      30.06F
MEEKER         PTSUNNY   64  21  19 SW14G21   30.06F
MOUNT WERNER   NOT AVBL
STEAMBOAT SPGS FAIR      59  26  29 SW10G20   30.08F
WALDEN         PTSUNNY   54  25  32 SW29G35   30.13S
$$

COZ006>008-011-252000-
...WEST CENTRAL VALLEYS...

CITY           SKY/WX    TMP DP  RH WIND       PRES   REMARKS
GRAND JUNCTION FAIR      68  27  21 N8        30.02F
MONTROSE       FAIR      70  10  10 W18G25    30.07F
EAGLE          MOSUNNY   66  19  16 SW20G30   30.07F
RIFLE          FAIR      67  23  19 W16G25    30.03F
DELTA          FAIR      73  15  11 S7        30.04F
NUCLA          FAIR      68  12  11 S13G23    30.11F
$$

COZ017>023-064>068-252000-
...SOUTHWEST COLORADO...

CITY           SKY/WX    TMP DP  RH WIND       PRES   REMARKS
DURANGO        FAIR      65   9  11 W14       30.14F
CORTEZ         FAIR      67  15  13 SW13G22   30.11F
PAGOSA SPRINGS FAIR      62   3   9 SW6G16    30.19F
TELLURIDE      FAIR      56   3  11 W16G25    30.21F
WOLF CREEK PAS FAIR      37  12  35 S23G32    30.37S
$$

COZ009-010-012-014-032>034-037-058>063-252000-
...CENTRAL COLORADO...

CITY           SKY/WX    TMP DP  RH WIND       PRES   REMARKS
ASPEN          FAIR      60  13  15 W7G25     30.12F
BUENA VISTA    FAIR      62   2   9 S7G29     30.13S
COPPER MTN     NOT AVBL
BERTHOUD PASS  FAIR      34  27  75 W17G35    30.30R WCI  23
COTTONWOOD PAS FAIR      55 -11   6 SW8G17    30.22F
GUNNISON       FAIR      61  12  15 W15G23    30.14F
KREMMLING      FAIR      63  10  13 W17G33    30.10F
LEADVILLE      FAIR      50  -3  11 W10G24    30.19F
MONARCH PASS   FAIR      41  12  30 SW17G24   30.41S
SALIDA         FAIR      68   9  10 W9G22     30.16F
SUNLIGHT       CLOUDY    43  19  39 SW3       30.29R
WILKERSON PASS FAIR      54   5  14 SW7       30.28S
$$

COZ069>075-252000-
...SAN LUIS VALLEY/SANGRE DE CRISTO MOUNTAINS...

CITY           SKY/WX    TMP DP  RH WIND       PRES   REMARKS
ALAMOSA        FAIR      68   4   8 W16G26    30.11F
LA VETA PASS   FAIR      57  12  17 S12G21    30.25S
SAGUACHE       FAIR      63  12  14 S17G26    30.12F
$$

COZ035-036-038>040-252000-
...NORTHERN COLORADO FRONT RANGE...

CITY           SKY/WX    TMP DP  RH WIND       PRES   REMARKS
DENVER INTL AP FAIR      68  40  35 E9        29.99F
DMNS CITY PARK   N/A     69  36  29 SW3G17    29.97F
AURORA         MOSUNNY   69  42  37 E13       30.00F
FRONT RANGE AP MOSUNNY   66  36  32 E3        30.01F
ERIE MUNI ARPT CLOUDY    64  39  40 SE13      29.98F
BOULDER MUN AP FAIR      64  41  42 CALM      29.99F
CENTENNIAL     FAIR      67  35  30 SE8       30.00F
BROOMFIELD     PTSUNNY   66  41  39 E6        30.01F
FORT COLLINS   FAIR      68  48  49 SE12      29.98F
LONGMONT       FAIR      70  41  34 S12       30.00F
$$

COZ041-046-047-076>085-087-088-252000-
...PIKES PEAK/PALMER DIVIDE AND SOUTHERN FOOTHILLS...

CITY           SKY/WX    TMP DP  RH WIND       PRES   REMARKS
COLO. SPRINGS  PTSUNNY   72  15  11 VRB3      30.01F
A. F. ACADEMY  FAIR      70  10  10 NW8G20    30.02R
SCHRIEVER AFB  NOT AVBL
ELLICOTT       FAIR     N/A N/A N/A SW12G22   30.01F
FALCON         FAIR      70  17  13 MISG      30.06F
FORT CARSON    FAIR      74  16  11 SW18G29   29.97F
LIMON          FAIR      70  39  32 VRB5      30.00F
MONUMENT HILL  FAIR      61  36  39 E10G17    30.07F
TRINIDAD       FAIR      75   9   8 SE8G20    30.02F
$$

COZ042>045-048>051-090-091-252000-
...NORTHEAST COLORADO...

CITY           SKY/WX    TMP DP  RH WIND       PRES   REMARKS
GREELEY ARPT   FAIR      72  45  37 S16       29.98F
AKRON          FAIR      69  50  50 NE6       29.99F
BURLINGTON     FAIR      71  52  50 CALM      29.97F
WRAY           FAIR      73  52  46 CALM      29.95F
STERLING       FAIR      72  50  46 S7        29.95S
HOLYOKE        FAIR      73  54  49 S7        29.95F
FORT MORGAN    FAIR      70  46  42 SE5       29.99F
$$

COZ086-089-092>099-252000-
...SOUTHEAST COLORADO...

CITY           SKY/WX    TMP DP  RH WIND       PRES   REMARKS
PUEBLO         FAIR      78  19  11 S8        29.94F
LA JUNTA       FAIR      79  35  20 CALM      29.96F
LAMAR          FAIR      78  45  30 VRB3      29.92F
SPRINGFIELD      N/A     81  18   9 W8        29.96F
$$




USA.gov is the U.S. government's official web portal to all federal, state and local government web resources and services.